TimeMST,TemperatureF,Dew PointF,Humidity,Sea Level PressureIn,VisibilityMPH,Wind Direction,Wind SpeedMPH,Gust SpeedMPH,PrecipitationIn,Events,Conditions,WindDirDegrees,DateUTC
12:17 AM,28.4,26.6,93,29.82,2.5,WNW,3.5,-,0.01,Snow,Light Snow,300,2013-02-20 07:17:00
12:28 AM,28.4,26.6,93,29.81,1.5,NW,3.5,-,0.01,Snow,Light Snow,320,2013-02-20 07:28:00
12:51 AM,28.4,26.6,93,29.81,2.5,Calm,Calm,-,0.01,Snow,Light Snow,0,2013-02-20 07:51:00
12:53 AM,28.0,27.0,96,29.74,2.5,Calm,Calm,-,0.01,Snow,Light Snow,0,2013-02-20 07:53:00
12:58 AM,28.4,26.6,93,29.81,3.0,NW,3.5,-,0.00,Snow,Light Snow,310,2013-02-20 07:58:00
1:05 AM,28.4,26.6,93,29.80,3.0,Calm,Calm,-,0.00,Snow,Light Snow,0,2013-02-20 08:05:00
1:13 AM,28.4,26.6,93,29.80,4.0,Calm,Calm,-,0.00,Snow,Light Snow,0,2013-02-20 08:13:00
1:42 AM,28.4,26.6,93,29.78,1.8,Calm,Calm,-,0.01,Snow,Light Snow,0,2013-02-20 08:42:00
1:53 AM,28.0,27.0,96,29.70,3.0,Calm,Calm,-,0.01,Snow,Light Snow,0,2013-02-20 08:53:00
2:07 AM,28.4,26.6,93,29.77,10.0,Calm,Calm,-,0.00,,Overcast,0,2013-02-20 09:07:00
2:53 AM,28.0,27.0,96,29.67,10.0,Calm,Calm,-,0.00,,Overcast,0,2013-02-20 09:53:00
3:53 AM,28.0,27.0,96,29.65,7.0,Calm,Calm,-,0.00,Snow,Light Snow,0,2013-02-20 10:53:00
4:53 AM,28.9,28.0,96,29.65,10.0,South,9.2,-,0.00,,Overcast,180,2013-02-20 11:53:00
5:10 AM,28.4,26.6,93,29.73,10.0,South,8.1,-,N/A,,Overcast,190,2013-02-20 12:10:00
5:51 AM,28.4,26.6,93,29.74,8.0,Calm,Calm,-,N/A,,Overcast,0,2013-02-20 12:51:00
5:53 AM,28.0,27.0,96,29.68,7.0,Calm,Calm,-,N/A,,Overcast,0,2013-02-20 12:53:00
6:11 AM,28.4,28.4,100,29.73,1.8,South,4.6,-,N/A,,Overcast,180,2013-02-20 13:11:00
6:21 AM,30.2,30.2,100,29.72,-9999.0,South,12.7,-,N/A,,Overcast,170,2013-02-20 13:21:00
6:53 AM,30.0,30.0,100,29.69,-9999.0,South,12.7,-,N/A,,Overcast,180,2013-02-20 13:53:00
7:16 AM,30.2,30.2,100,29.72,0.2,South,15.0,-,N/A,Fog,Light Freezing Fog,180,2013-02-20 14:16:00
7:53 AM,30.9,30.9,100,29.69,0.2,South,18.4,-,0.00,Fog-Snow,Light Snow,170,2013-02-20 14:53:00
8:53 AM,32.0,32.0,100,29.66,0.2,South,20.7,-,0.00,Fog,Fog,180,2013-02-20 15:53:00
9:11 AM,33.8,32.0,93,29.70,1.2,South,19.6,-,N/A,,Overcast,180,2013-02-20 16:11:00
9:13 AM,33.8,32.0,93,29.70,4.0,South,23.0,-,N/A,,Overcast,180,2013-02-20 16:13:00
9:33 AM,33.8,33.8,100,29.69,10.0,South,18.4,-,N/A,,Mostly Cloudy,190,2013-02-20 16:33:00
9:53 AM,34.0,33.1,96,29.63,10.0,South,20.7,29.9,N/A,,Overcast,180,2013-02-20 16:53:00
10:00 AM,33.8,33.8,100,29.68,1.8,South,23.0,-,0.00,Snow,Light Snow,170,2013-02-20 17:00:00
10:11 AM,33.8,33.8,100,29.68,1.0,South,18.4,-,0.00,,Overcast,180,2013-02-20 17:11:00
10:18 AM,33.8,33.8,100,29.68,3.0,South,18.4,-,0.00,,Overcast,180,2013-02-20 17:18:00
10:32 AM,33.8,33.8,100,29.67,1.8,South,18.4,-,0.00,,Overcast,170,2013-02-20 17:32:00
10:41 AM,35.6,33.8,93,29.67,4.0,South,19.6,-,0.00,,Overcast,180,2013-02-20 17:41:00
10:49 AM,35.6,33.8,93,29.66,10.0,South,16.1,25.3,0.00,,Overcast,190,2013-02-20 17:49:00
10:53 AM,35.1,32.0,89,29.60,10.0,South,17.3,-,0.00,,Mostly Cloudy,180,2013-02-20 17:53:00
11:12 AM,35.6,33.8,93,29.64,10.0,SSE,26.5,33.4,0.00,,Overcast,160,2013-02-20 18:12:00
11:36 AM,35.6,32.0,87,29.62,10.0,SSE,20.7,29.9,0.00,,Overcast,160,2013-02-20 18:36:00
11:51 AM,35.6,32.0,87,29.61,9.0,SSE,27.6,33.4,0.00,,Overcast,160,2013-02-20 18:51:00
11:53 AM,36.0,32.0,86,29.55,9.0,South,26.5,33.4,0.00,,Overcast,170,2013-02-20 18:53:00
12:05 PM,35.6,32.0,87,29.60,6.0,SSE,24.2,32.2,0.00,Snow,Light Snow,160,2013-02-20 19:05:00
12:38 PM,33.8,30.2,87,29.59,3.0,SW,18.4,23.0,0.01,Snow-Thunderstorm,Light Thunderstorms and Snow,220,2013-02-20 19:38:00
12:40 PM,32.0,28.4,87,29.59,1.8,SW,15.0,23.0,0.01,Snow-Thunderstorm,Light Thunderstorms and Snow,220,2013-02-20 19:40:00
12:45 PM,30.2,28.4,93,29.59,0.8,SW,18.4,-,0.05,Snow-Thunderstorm,Light Thunderstorms and Snow,230,2013-02-20 19:45:00
12:53 PM,30.9,28.9,92,29.55,0.5,SSW,12.7,21.9,0.06,Fog-Snow,Snow,210,2013-02-20 19:53:00
12:58 PM,32.0,28.4,87,29.57,1.0,SSW,13.8,-,0.01,Snow,Light Snow,210,2013-02-20 19:58:00
1:01 PM,32.0,28.4,87,29.57,2.0,SW,11.5,-,0.01,Snow,Light Snow,220,2013-02-20 20:01:00
1:09 PM,33.8,28.4,81,29.56,8.0,SSW,12.7,-,0.01,Snow,Light Snow,200,2013-02-20 20:09:00
1:23 PM,33.8,28.4,81,29.56,1.5,SSW,26.5,33.4,0.02,Snow,Light Snow,210,2013-02-20 20:23:00
1:33 PM,32.0,28.4,87,29.56,0.8,SW,13.8,35.7,0.04,Snow,Light Snow,230,2013-02-20 20:33:00
1:39 PM,33.8,28.4,81,29.55,2.0,WSW,17.3,-,0.04,Snow,Light Snow,240,2013-02-20 20:39:00
1:53 PM,34.0,27.0,75,29.50,10.0,SSW,12.7,-,0.04,,Overcast,210,2013-02-20 20:53:00
2:21 PM,33.8,26.6,75,29.53,2.5,South,17.3,32.2,0.00,Snow,Light Snow,180,2013-02-20 21:21:00
2:26 PM,33.8,26.6,75,29.53,5.0,South,15.0,-,0.00,Snow,Light Snow,180,2013-02-20 21:26:00
2:53 PM,37.0,24.1,59,29.45,10.0,South,18.4,-,0.00,,Overcast,190,2013-02-20 21:53:00
3:53 PM,37.0,19.0,48,29.45,8.0,SSW,28.8,33.4,N/A,,Overcast,210,2013-02-20 22:53:00
4:53 PM,32.0,25.0,75,29.50,10.0,WSW,19.6,33.4,N/A,,Mostly Cloudy,250,2013-02-20 23:53:00
5:53 PM,30.9,26.1,82,29.53,10.0,WSW,13.8,-,N/A,,Scattered Clouds,240,2013-02-21 00:53:00
6:53 PM,28.9,24.1,82,29.54,10.0,WSW,15.0,-,0.00,,Clear,240,2013-02-21 01:53:00
7:53 PM,27.0,23.0,85,29.55,10.0,West,10.4,-,N/A,,Clear,260,2013-02-21 02:53:00
8:53 PM,24.1,21.0,88,29.55,10.0,SSW,8.1,-,N/A,,Clear,210,2013-02-21 03:53:00
9:53 PM,25.0,21.9,88,29.52,10.0,NNE,5.8,-,N/A,,Clear,30,2013-02-21 04:53:00
10:53 PM,24.1,19.9,84,29.51,10.0,East,10.4,-,N/A,,Clear,90,2013-02-21 05:53:00
11:53 PM,26.1,23.0,88,29.48,10.0,ESE,10.4,-,N/A,,Clear,120,2013-02-21 06:53:00